"Pseudo-MPEC" for p160630

Created 2024 Apr 22 17:22:08 UT using Find_Orb

Click here for an explanation of pseudo-MPECs

 
 Astrometry: 
     p160630 KC2017 12 231Z-EQe@99JF/ZUDKgR6[xLMmHNpr$kSek^+1QD\wE2KC]9vMNtyUF51
     p160630 KC2019 01 03A!*7[VpMc[!f)Rd?P[e,.yy^M2Y]TZgEw;CaQ;bqD;\dE=)a#k:#F51
     p160630 KC2020 01 19Pt*bSgpg.p],1Zmu/4t$p^IgAdD2X!,`Y_MO'6EdB1Ei'tx;n#e,F51
     p160630  C2020 01 21,MEQ`WRVdl5#@e*VdIRuHA#BsrkP^w1jKVueg(AQt1/nv9$:bV6dF51
     p160630  C2020 01 21Qm-%?xU#O@HTPw?%;ITLXHrM4],AstrometrySiS`ns8#PgDxBtPF51
     p160630  C2020 01 21;lU0c\t28F9/5P;hso(AB@EraCq)qGEdVUZ@l.,^/ymx)cf#2HDTF51
     p160630  C2020 01 22hCLO@w38D2VUAjOgx5La4s_q\KtnMsH;puE7r2)qD9e)US[jYCXRF51
     p160630  C2020 01 22\O5b$]5Q,+G[*8-A$`4^%q92-)k*;xfkgNIJd0IGkS`So[1/JphAF51
     p160630* C2020 01 24/!(mF2.xSSe'6EH$l!EpSVY#LHy6#')#nk!yA\!1(X2P\$,#-361T09
     p160630  C2020 01 24:^dP;E3mXtnWQ3M3k_c'=I'tLh.byH=R;ceYVw.KUJhw5Y7R`.A)T09
     p160630 KC2020 01 27(c7Dc9Dk9CVLSZ%b*[P\pcM#[Xxd`bU*%n(__A)oH]#(egwp#G3*F52
     p160630 4C2020 02 25Ike(C*B+_MdT/$9+a/SDf5:QV7!Y^5caZ)i#3fcLmMQ@a8):6o*PT12
     p160630 4C2020 02 25`At%k7gKt0N-v7Zi?:FJ4-==-f,^AFYw@_h2m,junAg(0,B00WMNT12
     p160630 4C2020 02 25t[os6R3!kU3KHsCg]0oGp8X'IP.wJCl*p\0#o1n$x@r6$_s4/@_!T12
     p160630 4C2020 02 25R@J(N!RLH\B*mETXnXWh_)$cBwQQqj,J0VR92_eZAadhaGUQXCj;T12
     p160630 4C2020 02 25!-]R8iI)OMm,Z,?KR`gredacted;ON5P]fbV#[=:3U]\83d,sDlkT12
     p160630 4C2020 02 25crC#__Rgt\J:D*J!egxwS45fxA_vhP_:scyYo@-,jHPtr,_:]7UKT12
     p160630 4C2020 03 24LBJH'FjX`*+#]dr#LXmt/gFo`qcwclickL4$n8LP9byFmV)2(`^aT12
     p160630 4C2021 03 18S2JtX?s6cpbQt1D;]p#6ply\N_@5l,_fe$@8n]b15]BY77p.:`$d304
     p160630 4C2021 04 12RXGZqApdN/*m4K+\.mmw*i0v*tf._rf,-^'#/2,1a7t/*qmN(iTb304
     p160630 0C2022 01 09sO)\hUtb:UeeR#A,h)Cbl(Z_V)d$V9a8'=oU%/eEPQ)q]KT[4cH`T12
     p160630 0C2022 01 09sdi]ByQ*8XGahpSKv]Y.:+cusherec8A#1+FH'Fy18X2y9ISFjAYT12
     p160630 0C2022 04 03x5ad7%for2\gq]5y)50uGwt!6CTTCxOWvdu^(g=^yyKK6;J?*4n+T12
     p160630 4C2024 03 061B,!@:0c8_t4$JL`7iEjCJ;Ye?SI.GT?j:u0T+MFDH[racc+.-(XG37
     p160630 4C2024 03 06#axBnGPpVJ:pE$%*+%N-:+YnB-VP5h-PfOyhZIx*cn)gM3LS;ZmFG37
     p160630 0C2024 04 179I:\0pfE9sP%)G\REf;nexplanationo\A\.NxhvD(E90c^UW_(3T12

Station data:
(304) Las Campanas Observatory  (S29.003552 W70.702000)  Chile.  Observers M.
   Holman, D. Trilling, W. Fraser. Measurer M. Holman. 6.5-m f/1.25 Clay
   reflector + CCD.
(F51) Pan-STARRS 1, Haleakala  (N20.707234 W156.255910)  US/Hawaii.
   Observers J. Bulger, T. Lowe, A. Schultz, M. Willman. Measurers K.
   Chambers, S. Chastel, T. de Boer, L. Denneau, J. Fairlamb, H. Flewelling,
   M. Huber, C.-C. Lin, E. Magnier, Y. Ramanjooloo, R. Wainscoat, R. Weryk.
   1.8-m Ritchey-Chrétien + CCD.
(F52) Pan-STARRS 2, Haleakala  (N20.707382 W156.255910)  US/Hawaii.
   Observers J. Bulger, T. Dukes, T. Lowe, A. Schultz, M. Willman. Measurers
   K. Chambers, S. Chastel, T. de Boer, L. Denneau, J. Fairlamb, H.
   Flewelling, M. Huber, C.-C. Lin, E. Magnier, Y. Ramanjooloo, R. Wainscoat,
   R. Weryk. 1.8-m Ritchey-Chrétien + CCD.
(G37) Lowell Observatory-Discovery Channel Telescope  (N34.744375 W111.422210)  US/Arizona.
   Observer S. S. Sheppard. 4.3-m Lowell Discovery Telescope + CCD.
(T09) Mauna Kea-UH/Tholen NEO Follow-Up (Subaru)  (N19.825504 W155.476019)
   US/Hawaii. 8.2-m f/2.2 Subaru reflector.
(T12) Mauna Kea-UH/Tholen NEO Follow-Up (2.24-m)  (N19.822991 W155.469434)
   US/Hawaii.  Observer D. J. Tholen. 2.24-m f/10.1 University of Hawaii
   reflector.

Orbital elements:  p160630
   Perihelion 2020 Jan 26.15599 +/- 0.00865 TT =  3:44:37 (JD 2458874.65599)
Epoch 2024 Apr 17.0 TT = JDT 2460417.5                           AutoNEOCP
M   1.62375971 +/- 0.00038          (J2000 ecliptic)
n   0.00105244 +/- 2.47e-7          Peri.   15.86236 +/- 0.00024
a  95.7200434 +/- 0.0149            Node   110.11272 +/- 0.000024
e   0.8642233 +/- 2.07e-5           Incl.   34.19527 +/- 0.000028
P 936.49                   H 12.51  G  0.15   U  2.5
q 12.9965493 +/- 4.68e-5    Q 178.443537 +/- 0.0298
From 26 observations 2017 Dec. 23-2024 Apr. 17; mean residual 0".13
Residuals in arcseconds: 
171223 F51  .04+  .21+    200124 T09  .01+  .10-    210318 304  .11+  .13+    
190103 F51  .02+  .10-    200127 F52  .21+  .03+    210412 304  .04-  .20+    
200119 F51  .23-  .04-    200225 T12  .05-  .08+    220109 T12  .05+  .02-    
200121 F51  .07-  .10-    200225 T12  .10+  .06+    220109 T12  .05+  .01+    
200121 F51  .39-  .31+    200225 T12  .06+  .08+    220403 T12  .01+  .05+    
200121 F51  .03-  .05-    200225 T12  .06-  .00     240306 G37  .22-  .04+    
200122 F51  .27+  .14-    200225 T12  .05-  .04+    240306 G37  .02+  .20-    
200122 F51  .10-  .26+    200225 T12  .08-  .01-    240417 T12  .04-  .00     
200124 T09  .00   .03-    200324 T12  .01+  .14-    

Ephemerides (geocentric):
Date (UTC) HH   RA             Dec           delta  r     elong  mag " sig PA
---- --------  ------------   ------------  ------ ------ -----  --- --------
2024 04 22 17  11 30 48.239   +35 14 40.88  14.126 14.660 120.4 24.4 .013 136
2024 04 22 18  11 30 47.929   +35 14 39.68  14.126 14.660 120.4 24.4 .013 136
2024 04 22 19  11 30 47.619   +35 14 38.47  14.127 14.661 120.3 24.4 .013 136
2024 04 22 20  11 30 47.310   +35 14 37.26  14.128 14.661 120.3 24.4 .013 136
2024 04 22 21  11 30 47.001   +35 14 36.04  14.128 14.661 120.3 24.4 .013 136
2024 04 22 22  11 30 46.692   +35 14 34.82  14.129 14.661 120.2 24.4 .013 136
2024 04 22 23  11 30 46.384   +35 14 33.59  14.129 14.661 120.2 24.4 .013 136
2024 04 23 00  11 30 46.076   +35 14 32.36  14.130 14.661 120.2 24.4 .013 136
2024 04 23 01  11 30 45.769   +35 14 31.12  14.131 14.661 120.1 24.4 .013 135
2024 04 23 02  11 30 45.462   +35 14 29.88  14.131 14.661 120.1 24.4 .013 135
2024 04 23 03  11 30 45.155   +35 14 28.64  14.132 14.661 120.1 24.4 .013 135
2024 04 23 04  11 30 44.849   +35 14 27.39  14.132 14.661 120.0 24.4 .013 135
2024 04 23 05  11 30 44.543   +35 14 26.14  14.133 14.661 120.0 24.4 .013 135
2024 04 23 06  11 30 44.237   +35 14 24.88  14.133 14.661 120.0 24.4 .013 135
2024 04 23 07  11 30 43.932   +35 14 23.62  14.134 14.662 119.9 24.4 .013 135
2024 04 23 08  11 30 43.628   +35 14 22.35  14.135 14.662 119.9 24.4 .013 135
2024 04 23 09  11 30 43.323   +35 14 21.08  14.135 14.662 119.9 24.4 .013 135
2024 04 23 10  11 30 43.019   +35 14 19.80  14.136 14.662 119.8 24.4 .013 135
2024 04 23 11  11 30 42.716   +35 14 18.52  14.136 14.662 119.8 24.4 .013 134
2024 04 23 12  11 30 42.413   +35 14 17.24  14.137 14.662 119.8 24.4 .013 134
2024 04 23 13  11 30 42.110   +35 14 15.95  14.137 14.662 119.7 24.4 .013 134
2024 04 23 14  11 30 41.807   +35 14 14.66  14.138 14.662 119.7 24.4 .013 134
2024 04 23 15  11 30 41.505   +35 14 13.36  14.139 14.662 119.7 24.4 .013 134
2024 04 23 16  11 30 41.204   +35 14 12.06  14.139 14.662 119.6 24.4 .013 134
2024 04 23 17  11 30 40.903   +35 14 10.75  14.140 14.662 119.6 24.4 .013 134
2024 04 23 18  11 30 40.602   +35 14 09.44  14.140 14.662 119.6 24.4 .013 134
2024 04 23 19  11 30 40.302   +35 14 08.12  14.141 14.663 119.5 24.4 .013 134
2024 04 23 20  11 30 40.002   +35 14 06.80  14.141 14.663 119.5 24.4 .013 134
2024 04 23 21  11 30 39.702   +35 14 05.47  14.142 14.663 119.4 24.4 .013 133
2024 04 23 22  11 30 39.403   +35 14 04.14  14.143 14.663 119.4 24.4 .013 133
2024 04 23 23  11 30 39.104   +35 14 02.81  14.143 14.663 119.4 24.4 .013 133
2024 04 24 00  11 30 38.806   +35 14 01.47  14.144 14.663 119.3 24.4 .013 133
2024 04 24 01  11 30 38.508   +35 14 00.13  14.144 14.663 119.3 24.4 .013 133
2024 04 24 02  11 30 38.210   +35 13 58.78  14.145 14.663 119.3 24.4 .013 133
2024 04 24 03  11 30 37.913   +35 13 57.43  14.146 14.663 119.2 24.4 .013 133
2024 04 24 04  11 30 37.616   +35 13 56.07  14.146 14.663 119.2 24.4 .013 133
2024 04 24 05  11 30 37.320   +35 13 54.71  14.147 14.663 119.2 24.4 .013 133
2024 04 24 06  11 30 37.023   +35 13 53.34  14.147 14.663 119.1 24.4 .013 133
2024 04 24 07  11 30 36.728   +35 13 51.97  14.148 14.663 119.1 24.4 .013 132
2024 04 24 08  11 30 36.433   +35 13 50.60  14.148 14.664 119.1 24.4 .013 132
2024 04 24 09  11 30 36.138   +35 13 49.22  14.149 14.664 119.0 24.4 .013 132
2024 04 24 10  11 30 35.843   +35 13 47.84  14.150 14.664 119.0 24.4 .013 132
2024 04 24 11  11 30 35.549   +35 13 46.45  14.150 14.664 119.0 24.4 .013 132
2024 04 24 12  11 30 35.256   +35 13 45.06  14.151 14.664 118.9 24.4 .013 132
2024 04 24 13  11 30 34.962   +35 13 43.66  14.151 14.664 118.9 24.4 .013 132
2024 04 24 14  11 30 34.670   +35 13 42.26  14.152 14.664 118.9 24.4 .013 132
2024 04 24 15  11 30 34.377   +35 13 40.85  14.153 14.664 118.8 24.4 .013 132
2024 04 24 16  11 30 34.085   +35 13 39.44  14.153 14.664 118.8 24.4 .013 132